Location: Unspecified
(0.0000°N, 0.0000°E)
Time: 16:23:43
(UTC+00:00)

deb Explorer IX - Visible Passes

Search period start: 13 December 2018 00:00
Search period end: 23 December 2018 00:00
Orbit: 543 x 1112 km, 38.8° (Epoch: 12 December)

Date Brightness Start Highest point End Pass type
(mag) Time Alt. Az. Time Alt. Az. Time Alt. Az.
13 Dec ? 03:59:28 57° WSW 04:00:13 61° SW 04:07:05 10° SE visible
14 Dec ? 03:39:29 55° SSW 03:39:29 55° SSW 03:45:30 10° SE visible
14 Dec ? 05:24:38 10° SW 05:26:51 12° SSW 05:29:08 10° SSW visible
15 Dec ? 03:19:27 39° SSE 03:19:27 39° SSE 03:23:54 10° SE visible
15 Dec ? 05:03:58 10° SW 05:05:26 11° SSW 05:06:57 10° SSW visible
16 Dec ? 02:59:21 26° SSE 02:59:21 26° SSE 03:02:18 10° SE visible
17 Dec ? 02:39:11 17° SSE 02:39:11 17° SSE 02:40:41 10° SE visible
18 Dec ? 02:18:58 10° SSE 02:18:58 10° SSE 02:19:04 10° SSE visible
